User: anonymous   Login
Location: Muenchen
(48.1800°N, 11.5800°E)
Time: 05:33:01
(UTC+02:00)
Language:

Iridium 73 - Orbit

View from above orbital plane
View from above orbital plane
View from above satellite
View from above satellite

Ground track
Ground track

The orbit data is extracted from the following two-line orbital elements,

1 25344U 98032C   17173.46036197 +.00000133 +00000-0 +29556-4 0  9993
2 25344 086.4437 200.7126 0002857 080.4878 279.6649 14.49040982008313
Epoch (UTC): 22 June 2017 11:02:55
Eccentricity: 0.0002857
inclination: 86.4437°
perigee height: 727 km
apogee height: 731 km
right ascension of ascending node: 200.7126°
argument of perigee: 80.4878°
revolutions per day: 14.49040982
mean anomaly at epoch: 279.6649°
orbit number at epoch: 831

The dashed part of the orbit path shows where the satellite is in the earth's shadow,  

DLR